Theta_e
317 317 317 318 318 320 320 320 320 322 321 322 322 322 323 323 323 322 322 322 323 323 324 323 323 323 323 323 324 320 309 295 297 297 298 297 312 323 323 326 326 326 312 294 297 299 294 291 293 292 293 293 290 290 291 289 287 287 283 282 282 280 282 283 285 284 283 287 288 288 287 288 287 290 292 292 292 287 290 291 291 291 291 291 291 293 294 294
318 318 318 319 320 319 320 321 322 322 322 322 322 323 323 323 324 323 324 323 323 324 324 323 322 322 323 323 323 318 298 296 296 297 296 308 324 322 324 326 322 321 309 296 291 290 293 293 292 292 290 290 289 291 290 289 287 282 279 281 281 280 283 285 284 286 288 288 288 289 285 287 289 288 290 290 289 287 291 291 289 292 293 293 292 293 293 292
318 319 320 319 319 320 321 322 321 321 322 322 322 323 323 323 324 324 322 323 323 324 324 324 323 322 323 323 321 319 301 292 297 294 298 319 322 322 324 326 318 312 298 295 293 290 293 293 291 292 288 287 289 289 289 289 288 282 283 282 282 282 283 282 285 287 285 289 288 288 287 286 288 289 291 290 287 287 288 288 290 290 292 293 292 292 292 291
319 320 320 320 320 320 320 321 321 321 322 323 322 323 323 323 322 323 323 323 324 324 324 323 324 323 320 319 316 297 295 290 290 293 298 319 320 321 323 324 320 308 297 292 291 291 290 290 291 291 288 288 286 285 289 288 287 285 284 279 284 281 285 286 284 286 287 290 288 287 286 287 289 288 290 288 288 288 288 288 292 291 291 292 291 291 292 291
319 319 319 320 321 320 321 321 322 323 323 323 323 322 323 323 323 323 323 323 324 325 324 323 324 323 318 319 315 295 293 284 289 294 299 316 318 320 321 318 310 295 296 293 293 290 292 290 287 288 289 286 286 284 285 286 285 285 283 282 282 282 285 286 285 286 287 287 287 285 288 288 289 289 288 287 287 287 290 293 291 293 292 292 291 292 291 290
318 319 319 320 320 320 320 320 320 323 323 322 323 323 324 323 323 323 324 324 324 324 324 325 324 322 319 312 297 296 293 280 293 297 313 315 317 317 319 317 313 295 293 290 291 290 292 291 290 285 284 285 285 286 287 286 288 285 283 283 283 283 286 285 287 286 288 287 286 286 288 289 289 288 286 287 289 290 290 291 292 293 294 292 291 292 291 291
317 318 318 319 319 319 319 320 321 322 322 323 323 324 324 324 324 324 324 325 325 325 325 324 322 322 319 312 299 300 295 292 293 298 309 314 315 314 311 308 306 294 292 291 290 291 288 290 290 284 283 284 285 286 287 286 288 287 284 283 285 285 286 285 287 285 285 288 286 286 288 288 287 288 287 286 290 293 293 290 290 291 291 291 291 291 293 291
318 319 319 319 319 318 318 321 322 321 322 323 323 323 324 323 323 323 324 325 326 325 324 323 321 320 316 298 296 293 293 291 298 298 307 311 303 302 308 298 297 296 295 291 291 290 289 290 291 286 285 284 286 287 286 288 286 284 284 284 286 284 284 283 283 284 285 285 285 286 287 287 286 286 286 287 291 292 292 292 291 290 289 289 290 291 292 291
319 319 318 318 317 318 319 320 321 322 323 323 324 323 324 323 323 322 322 323 323 324 322 322 322 316 313 295 292 293 290 295 297 297 297 296 296 297 297 299 295 296 292 290 290 290 291 288 288 287 287 285 286 287 286 286 285 285 285 284 284 284 285 285 285 283 284 286 286 288 286 285 284 285 287 291 292 292 292 291 290 289 289 289 290 291 291 290
319 319 318 318 318 318 319 319 320 322 322 323 322 323 324 323 321 321 322 323 323 323 321 321 322 312 300 294 293 292 294 296 297 298 297 295 297 299 297 294 293 292 292 291 292 292 292 287 290 291 291 287 285 285 284 287 285 283 284 284 284 284 285 285 287 285 284 287 284 287 285 286 286 287 287 289 290 290 290 290 289 288 290 290 290 290 290 290
319 318 318 318 319 320 320 321 321 321 320 321 322 324 324 322 321 322 323 323 322 323 322 318 317 309 299 295 294 289 297 299 298 297 297 296 300 297 296 294 294 295 296 295 293 291 293 293 294 293 292 288 288 287 285 286 286 286 286 287 286 283 285 285 285 286 286 288 285 287 286 284 285 286 288 292 289 288 289 289 289 288 289 290 289 289 290 289
318 318 318 318 319 319 320 320 320 320 320 322 323 324 323 321 320 322 322 322 321 322 321 319 312 300 299 298 294 293 298 299 295 296 298 299 297 296 296 295 296 295 297 293 293 293 292 291 292 291 290 290 287 287 288 286 286 285 286 285 284 281 288 286 286 286 286 287 285 286 286 286 286 285 291 292 289 289 287 288 289 289 289 288 288 288 289 289
318 317 318 318 319 319 319 319 320 321 321 323 323 322 321 320 320 320 322 319 322 320 318 318 307 300 299 295 292 297 295 294 296 299 300 297 297 298 298 298 299 297 296 294 291 293 291 291 296 293 288 287 286 285 288 287 285 286 284 282 282 281 282 286 284 284 286 287 284 286 281 282 282 288 291 290 288 288 288 288 289 290 290 289 288 288 289 289
317 317 318 318 318 319 319 320 321 321 320 321 321 320 319 319 321 321 322 318 321 321 320 314 299 298 296 289 297 298 296 294 298 300 297 297 301 298 300 299 299 298 299 297 295 295 297 297 296 292 290 288 288 291 288 283 284 284 283 281 276 278 281 284 284 284 287 286 285 288 280 283 286 288 288 288 287 288 289 289 290 290 289 289 289 288 289 289
317 317 317 318 318 319 319 320 320 319 320 320 320 319 319 319 320 319 319 317 318 319 317 311 300 297 294 294 296 298 312 297 300 295 295 296 296 298 298 297 297 296 296 296 295 296 295 297 296 290 289 289 290 287 282 281 280 279 281 276 275 277 279 280 284 284 286 286 286 288 277 283 286 288 289 286 285 285 287 289 289 289 289 289 289 288 289 289
317 317 318 318 318 318 318 318 318 319 319 320 318 318 320 320 319 320 318 315 315 316 303 300 298 298 295 291 298 305 294 295 297 295 293 295 294 296 295 294 294 295 296 295 295 296 295 296 290 288 289 289 285 281 280 281 279 278 280 273 275 276 276 283 285 282 284 286 287 287 283 283 285 285 286 285 285 285 286 287 288 288 288 289 289 289 289 289
316 317 318 317 317 318 318 318 318 319 319 318 319 319 319 319 317 318 317 311 303 304 303 298 293 296 291 295 300 293 292 293 294 295 294 295 294 294 293 293 293 293 291 294 296 296 293 292 286 289 284 284 280 278 275 275 274 278 277 278 276 278 279 279 283 285 284 286 285 286 283 284 287 287 288 286 286 286 286 288 288 288 288 289 289 289 289 289
316 317 317 317 317 318 318 319 318 318 318 317 313 314 309 313 315 312 306 304 300 299 296 297 293 295 292 295 292 293 293 291 295 294 294 296 296 296 295 294 290 291 288 293 293 293 289 287 287 285 282 282 282 276 275 273 277 277 280 277 279 278 278 280 280 284 286 284 284 283 283 284 287 288 289 290 288 287 288 289 289 289 289 289 289 289 289 289
316 316 317 317 317 318 318 318 317 318 317 317 316 315 313 312 301 302 298 298 299 294 289 292 291 285 285 292 291 292 293 295 293 296 297 297 296 293 293 291 290 290 289 287 290 287 287 286 285 282 279 280 281 279 277 280 278 279 278 278 278 279 277 278 281 282 284 284 282 283 283 286 287 288 290 290 287 286 287 287 287 287 287 288 288 289 289 290
316 317 317 316 317 317 317 318 317 318 320 308 296 299 295 294 294 291 296 297 290 291 292 292 290 291 292 291 293 296 296 294 294 294 296 295 295 294 291 289 291 291 284 284 284 286 284 281 278 277 279 279 280 281 282 279 280 279 277 277 276 277 279 280 281 282 283 283 283 284 284 284 285 287 289 290 287 285 285 286 286 287 287 287 288 288 289 289
316 316 316 316 317 317 317 317 317 317 314 297 297 296 296 287 286 287 285 291 288 288 292 291 292 293 293 292 292 293 293 294 294 293 295 297 294 293 291 289 287 288 284 281 285 286 287 282 279 280 280 282 282 279 280 280 279 280 277 278 277 277 278 281 285 283 281 283 279 279 280 282 284 287 288 288 286 286 287 286 286 286 286 287 287 288 289 290
315 315 315 316 317 317 318 317 315 314 311 296 296 295 292 290 295 294 290 288 292 290 290 290 289 292 291 291 292 291 290 290 295 295 295 299 293 291 289 287 284 285 283 282 282 283 282 279 281 282 281 280 279 280 279 281 279 277 282 276 276 277 279 280 281 280 281 284 282 280 280 284 286 287 288 287 286 287 286 286 287 286 287 287 287 288 289 289
314 315 316 316 317 318 317 317 314 313 298 303 296 294 296 297 294 289 292 290 288 290 290 290 293 289 292 292 292 293 289 288 288 292 294 295 290 289 284 285 284 282 284 282 283 277 280 281 282 281 279 280 280 279 280 279 278 277 279 279 277 278 277 277 280 280 282 281 280 279 280 283 286 286 285 286 285 284 284 284 286 286 287 288 289 289 289 289
314 315 315 315 316 317 318 314 310 304 293 295 294 296 295 291 290 293 290 285 287 290 293 291 290 289 291 292 293 292 288 289 287 291 294 291 289 288 286 282 280 280 282 281 282 282 281 284 280 280 280 283 281 279 282 280 280 278 278 275 275 278 279 280 279 280 276 278 279 279 280 280 279 280 280 283 282 282 283 283 284 285 285 287 287 287 288 289
314 314 315 316 316 316 315 311 300 294 292 293 293 294 292 289 290 291 292 285 285 288 291 290 289 292 294 294 291 295 289 288 290 290 289 292 289 288 286 284 282 283 282 281 281 282 282 283 281 280 279 278 280 282 280 279 279 276 276 280 282 279 280 279 278 279 278 278 281 280 277 274 276 279 280 283 281 284 283 285 287 288 287 286 287 288 290 289
314 314 315 316 316 315 315 301 296 294 295 295 296 293 290 288 292 291 286 278 277 285 290 289 294 292 294 292 290 285 289 287 291 290 292 292 294 290 286 285 285 284 280 280 282 282 283 281 283 282 279 279 279 281 281 280 278 275 279 279 280 279 279 278 278 278 272 276 279 279 279 275 278 281 285 282 280 283 285 284 286 286 286 286 287 289 290 290
314 314 314 315 313 313 299 294 293 293 296 295 293 290 291 293 289 297 294 273 273 285 286 293 293 291 295 289 287 289 285 287 290 290 290 291 292 292 287 283 284 283 281 281 280 283 283 281 280 279 281 279 281 282 282 277 275 279 280 276 276 279 278 276 275 276 277 278 279 279 276 273 277 282 280 277 280 283 284 286 286 286 285 285 287 288 289 290
314 314 314 314 313 309 298 295 294 296 294 294 291 291 290 290 294 294 281 270 273 289 285 287 293 292 292 290 288 288 288 286 286 290 289 290 292 290 287 284 283 282 282 280 278 281 283 283 282 281 278 282 281 281 282 279 281 281 278 278 278 279 278 276 277 275 275 275 277 276 280 276 271 279 277 278 283 284 284 285 285 286 285 284 285 287 288 290
314 314 312 311 310 306 296 294 293 294 294 291 290 293 288 290 292 289 276 272 283 284 296 290 297 291 285 290 286 283 285 286 287 288 288 290 291 290 286 285 281 280 281 283 279 280 282 283 284 282 281 282 280 282 279 282 282 280 277 274 274 276 276 276 274 278 270 274 271 275 279 273 275 277 280 277 281 280 282 284 284 284 285 285 285 286 287 287
314 314 314 312 302 301 292 290 294 295 292 292 294 293 291 292 289 282 276 271 286 281 287 288 289 285 282 285 284 284 286 283 284 285 287 286 289 288 285 284 282 280 282 279 281 279 283 284 284 284 283 283 281 280 278 280 281 278 280 281 277 275 276 275 272 269 270 268 267 273 275 278 273 278 279 281 281 281 281 281 283 283 283 284 284 285 287 287
311 312 311 308 293 294 290 290 293 290 291 295 292 292 294 287 274 266 268 276 286 284 285 284 283 282 280 282 284 284 282 280 284 282 283 285 286 284 284 286 282 280 273 277 280 279 283 282 284 284 284 282 281 282 280 280 280 280 279 279 276 278 275 276 270 267 268 265 268 273 275 275 270 276 279 279 279 277 281 284 286 286 287 286 286 286 286 286
309 308 308 300 296 291 295 295 291 291 294 293 291 288 286 284 280 274 277 286 280 282 281 282 282 280 280 280 279 281 281 280 280 280 280 278 278 281 280 278 274 272 272 274 277 278 282 283 283 283 284 284 281 282 281 280 279 280 277 278 274 267 268 267 263 271 264 268 276 272 273 274 276 280 284 283 283 285 282 284 286 286 286 286 286 287 287 286
308 308 307 300 295 291 291 290 293 297 295 292 289 285 281 272 275 272 271 276 281 282 282 282 281 280 278 279 280 279 280 282 281 279 279 279 277 278 278 280 279 278 276 277 277 275 276 278 280 283 283 283 282 282 277 278 278 279 277 269 266 264 258 261 260 262 264 271 273 275 272 274 278 280 282 284 287 287 284 283 284 284 285 286 287 287 286 286
307 305 298 296 295 293 293 293 293 294 292 292 289 290 280 277 275 285 275 276 281 279 282 280 279 280 278 281 280 278 281 281 280 281 280 279 275 276 277 278 280 279 273 276 277 274 270 272 279 282 282 282 281 282 283 283 280 281 277 280 274 265 269 264 259 267 270 270 273 271 270 270 270 280 283 282 284 283 282 282 282 282 282 283 284 284 284 285
304 298 295 290 293 293 293 291 294 295 288 288 283 278 276 274 271 274 276 276 277 278 282 280 279 279 278 276 278 278 280 279 280 278 278 278 278 277 279 278 280 278 274 276 270 272 277 276 277 280 281 281 282 281 278 277 279 280 278 276 275 270 271 271 261 264 261 266 269 266 272 271 280 282 285 282 279 280 281 282 282 283 284 283 284 285 287 287
302 294 294 291 294 293 289 291 289 290 288 288 283 277 274 275 277 277 279 280 280 281 280 280 276 277 276 273 275 274 281 279 279 278 278 277 277 279 279 277 280 280 278 275 271 274 272 275 280 278 280 280 281 280 281 281 274 278 280 274 277 276 270 265 269 269 269 262 269 261 273 278 279 280 279 279 281 281 281 280 281 282 282 282 283 286 287 288
291 292 296 291 292 293 288 287 291 289 291 283 276 275 275 277 280 277 284 280 280 279 279 278 277 276 275 273 274 271 276 279 276 277 279 278 279 277 279 279 278 278 279 276 272 273 273 275 275 280 282 282 280 279 281 279 279 276 273 275 278 277 274 274 269 262 256 261 269 268 268 273 273 277 280 280 279 281 280 281 281 282 281 283 286 287 288 288
293 291 291 291 292 290 289 287 291 290 287 284 277 285 278 280 281 280 279 279 280 279 275 278 277 279 272 273 278 275 276 279 279 276 278 278 281 279 278 278 280 281 279 277 278 275 275 271 275 279 279 282 279 281 280 282 281 284 279 277 279 269 273 270 265 264 265 263 266 269 264 267 270 278 277 278 279 282 283 281 281 283 284 286 286 287 287 287
288 289 289 292 291 289 290 288 290 288 285 283 273 282 282 280 280 279 278 279 279 281 278 277 277 277 274 272 274 273 272 277 275 277 275 278 277 281 282 279 281 278 278 279 277 277 276 271 274 276 279 281 279 280 273 277 282 280 281 281 276 275 265 268 271 265 268 265 263 271 265 275 273 274 274 280 281 282 283 282 282 283 283 285 286 287 287 288
294 293 287 292 291 288 289 291 291 286 284 281 274 276 281 282 281 279 277 279 281 279 279 278 277 275 277 275 275 277 273 273 276 276 278 278 280 283 281 280 280 280 278 278 280 279 277 275 266 273 276 278 275 278 275 277 273 275 276 271 276 268 270 271 267 269 272 259 261 258 268 275 279 277 278 282 284 284 283 284 283 283 285 286 286 286 287 288
284 287 290 291 292 289 292 293 285 278 277 277 278 279 279 281 281 280 279 277 280 281 278 277 276 279 277 275 276 277 274 274 275 275 276 277 280 276 277 279 278 281 280 280 281 278 271 275 270 273 276 276 277 275 277 276 277 277 277 272 276 267 272 269 273 266 263 268 267 259 272 276 284 281 281 283 284 283 282 281 282 284 285 286 286 287 287 287
287 281 289 292 289 292 291 286 277 276 277 275 278 282 283 288 279 279 278 278 278 280 278 276 277 276 276 279 279 274 278 273 275 274 275 277 280 280 277 273 275 275 280 279 279 279 279 272 273 272 276 279 276 278 276 278 278 277 279 277 272 268 268 264 265 265 265 266 265 265 262 275 281 280 281 282 282 281 281 280 282 285 285 286 286 286 287 286
286 287 292 292 290 293 288 278 279 278 276 279 281 280 278 278 277 278 280 281 281 280 280 281 282 279 278 281 279 278 278 275 276 278 278 277 276 277 277 279 275 278 278 276 279 279 284 273 268 274 276 272 274 275 275 272 279 279 276 272 273 272 272 274 271 264 267 263 267 263 265 275 284 279 278 279 279 279 280 280 282 285 285 286 286 286 286 287
283 288 292 293 291 291 284 280 276 275 275 281 280 281 280 281 281 280 279 279 279 278 280 280 281 280 281 278 278 280 280 275 278 279 278 275 279 277 278 278 277 279 280 278 276 278 273 273 271 267 269 270 271 272 274 276 278 275 272 271 269 268 265 262 263 261 270 268 271 268 269 274 283 278 281 281 281 283 284 283 282 283 286 287 287 287 287 287
285 286 285 289 293 290 284 277 277 273 275 275 275 276 277 280 280 281 280 281 279 278 276 280 281 280 279 279 278 279 279 278 275 275 274 273 276 275 274 274 272 277 279 280 283 279 274 272 271 269 267 268 271 272 273 270 268 273 275 272 269 271 268 271 270 267 268 268 271 264 268 280 285 287 287 287 284 284 285 285 284 283 284 285 287 287 287 287
283 282 284 282 287 285 280 278 278 277 271 273 275 277 277 278 281 277 278 281 279 279 280 281 279 279 279 280 279 278 280 279 278 274 272 276 273 276 275 274 274 277 281 280 279 275 269 271 273 272 271 273 276 277 275 277 274 272 270 271 272 269 267 267 267 265 272 267 269 274 276 279 281 283 284 285 285 285 285 286 287 287 287 287 287 287 286 286
282 282 278 277 283 284 279 280 278 277 277 277 276 277 277 277 279 279 280 282 281 280 281 281 281 281 280 279 276 279 278 279 277 274 273 271 269 272 276 277 276 279 281 279 275 267 265 270 271 273 273 277 278 277 278 277 275 277 274 276 273 270 269 273 273 275 272 267 272 278 277 275 279 282 283 284 285 285 286 286 287 287 287 286 287 286 287 286
281 279 280 282 284 282 281 282 278 278 278 278 276 278 277 276 277 277 280 281 280 277 281 280 278 279 280 281 280 275 275 275 275 274 272 270 268 271 272 275 277 278 279 275 272 274 268 268 267 269 269 273 275 276 279 276 276 277 277 276 275 271 269 273 274 278 274 273 274 280 277 274 280 282 284 284 285 285 285 286 286 286 285 286 286 286 285 286
282 280 280 282 281 278 278 280 279 278 280 277 276 279 275 276 278 280 280 280 278 280 280 277 280 279 278 278 280 276 275 274 272 270 271 271 271 271 273 274 278 277 275 274 273 264 271 267 264 266 272 275 276 277 276 275 273 272 274 276 277 273 272 275 276 276 276 277 279 279 279 279 281 282 284 285 286 285 285 286 285 284 285 285 285 285 285 286
284 282 281 279 277 273 273 275 278 278 281 280 276 280 279 279 281 280 280 280 277 280 281 281 280 279 278 277 279 277 277 278 277 275 273 273 273 270 268 273 274 275 273 274 269 272 273 269 274 267 269 276 275 271 269 271 271 273 278 277 275 275 274 274 274 275 273 275 277 277 277 277 282 284 284 285 285 284 283 283 284 284 284 285 285 285 286 286
282 281 281 282 276 278 276 272 277 277 273 279 276 279 281 278 279 279 281 280 281 281 281 282 281 280 276 278 279 278 279 279 278 280 277 275 275 275 275 275 276 273 271 271 270 269 272 269 261 261 270 274 272 270 272 274 273 272 274 274 273 272 268 270 270 273 273 274 274 273 272 275 282 284 282 283 284 284 283 284 284 285 286 286 286 285 285 285
279 281 278 280 279 279 277 273 274 278 278 279 281 282 280 282 280 277 281 279 275 280 281 283 280 282 277 278 277 280 281 279 280 279 277 276 276 278 276 277 275 275 268 269 266 271 266 264 267 263 268 270 272 271 275 275 273 269 268 273 274 272 272 272 273 273 276 277 273 269 275 282 283 282 282 284 285 286 286 286 285 285 287 287 286 285 285 285
Wind_Speed
6 6 6 7 7 7 7 7 8 8 8 9 9 9 9 9 9 9 9 9 9 10 8 6 5 7 6 5 3 3 5 4 8 9 15 3 2 12 11 9 9 6 4 1 1 1 3 6 6 9 7 8 5 4 1 5 3 3 5 6 5 3 4 7 9 10 1 10 7 5 5 5 4 1 1 1 0 1 2 2 5 3 6 4 2 2 3 1
6 6 6 7 7 7 7 7 8 8 8 9 9 9 9 9 9 9 8 9 10 11 8 5 4 4 6 4 2 2 5 3 8 12 5 3 10 12 11 8 8 6 2 2 5 4 5 2 3 8 7 5 4 2 1 2 4 7 4 5 7 6 2 6 4 5 6 5 6 5 4 3 3 5 1 1 2 3 2 3 2 5 8 2 1 1 3 3
7 7 7 7 7 7 7 7 8 8 9 9 9 9 9 9 8 8 9 9 12 12 9 5 2 3 3 3 2 1 1 4 10 11 8 12 14 15 10 6 5 11 2 3 1 5 2 3 0 5 7 5 9 2 5 3 3 1 5 6 0 6 0 4 4 6 3 6 8 7 2 1 1 1 1 2 3 1 5 4 3 5 8 8 3 1 4 3
7 7 7 7 7 7 7 8 8 9 9 9 9 9 9 9 8 7 8 9 11 11 8 4 2 3 2 1 4 2 5 3 7 5 5 13 16 13 9 6 5 2 3 10 4 7 5 8 11 9 3 9 5 3 7 6 3 1 7 3 3 6 4 0 5 2 1 6 8 5 2 0 2 1 1 2 1 6 8 9 7 8 10 9 6 5 4 5
7 7 7 7 7 7 8 8 9 9 9 9 9 9 8 7 7 6 7 8 9 9 8 8 4 2 4 5 3 2 4 5 3 3 5 17 16 13 7 7 7 5 5 7 5 7 10 8 6 7 7 1 6 5 3 4 2 5 3 1 1 3 3 1 3 3 5 4 8 3 6 4 1 0 2 6 6 7 8 9 11 9 8 7 7 6 5 6
7 7 7 7 7 8 8 9 9 9 9 9 9 9 8 8 8 7 7 7 7 6 6 6 5 3 4 4 4 4 3 2 3 7 13 16 14 10 4 5 5 6 3 7 2 4 2 8 8 5 4 7 7 7 5 1 1 8 2 3 1 2 3 0 3 3 7 5 6 5 3 2 3 2 2 6 10 8 7 5 8 11 8 6 2 5 6 8
7 7 7 8 8 8 8 9 9 9 9 9 9 9 8 7 7 7 7 6 6 4 3 3 2 1 2 4 4 15 10 1 1 8 16 15 12 8 4 6 6 5 5 3 5 3 4 8 10 3 5 5 3 7 2 3 5 9 4 1 5 2 4 2 1 2 1 8 6 3 1 3 2 5 1 3 12 13 9 5 5 5 2 3 4 7 9 10
7 7 7 8 8 9 9 8 8 9 9 9 8 8 7 8 7 7 6 6 5 3 2 2 1 2 2 2 4 7 9 5 12 7 14 12 9 8 3 5 5 6 11 5 2 6 4 7 12 5 9 6 1 3 3 8 11 6 4 1 1 3 2 3 4 4 4 3 0 2 2 3 5 3 2 10 14 13 14 9 7 6 5 5 8 8 9 9
6 6 7 7 8 8 8 8 8 9 8 8 7 7 7 7 6 5 3 3 5 6 7 5 2 4 4 4 3 12 7 5 7 10 10 10 9 8 6 1 7 9 4 3 4 6 6 1 2 3 4 4 0 5 7 4 4 3 1 1 2 3 2 1 5 4 3 1 1 1 4 4 5 2 7 19 16 13 10 6 8 6 6 8 10 10 9 9
5 6 6 6 7 8 8 8 7 7 6 7 7 8 7 6 6 5 6 6 6 8 7 5 7 7 6 3 4 13 3 6 7 10 10 7 6 10 12 4 2 6 5 5 5 2 1 7 4 7 17 9 3 5 2 7 3 4 4 4 7 2 1 4 3 1 2 1 0 2 4 2 1 1 8 4 10 2 5 9 6 6 10 10 8 8 8 9
4 4 5 5 6 6 6 5 5 6 7 8 8 7 6 6 5 6 5 4 5 6 7 8 9 6 7 1 14 7 3 5 4 7 11 8 16 12 8 6 3 7 14 10 10 3 7 14 9 7 6 3 4 6 7 2 4 4 5 6 8 5 4 1 3 2 0 0 1 2 4 3 3 2 11 16 1 1 5 9 8 8 10 9 9 8 8 8
4 4 4 4 5 5 6 6 5 6 7 7 6 5 5 6 6 5 3 3 4 5 5 5 6 8 6 18 11 3 3 1 4 5 5 10 11 6 6 7 7 2 10 9 5 4 4 7 5 3 5 1 6 4 5 1 2 0 3 5 4 6 2 2 1 1 0 0 2 0 4 6 4 8 18 15 1 1 5 8 9 10 10 9 9 8 7 10
4 4 3 4 5 6 6 7 6 5 5 5 5 5 5 5 5 4 3 3 2 3 6 3 5 4 3 16 2 5 1 2 2 7 10 7 5 6 7 8 13 11 6 12 2 1 1 3 12 17 2 6 4 1 4 7 1 1 9 3 3 4 2 0 1 1 1 1 0 1 4 6 8 18 16 1 1 1 3 9 10 10 9 9 8 8 8 7
5 4 4 5 5 6 6 6 5 5 6 5 5 4 4 4 3 3 2 2 1 1 2 4 5 7 6 4 3 4 3 2 3 13 8 8 9 5 11 10 10 9 9 16 7 4 9 7 20 13 4 6 5 1 6 4 6 4 1 5 1 1 1 1 0 0 2 0 1 1 2 9 11 11 11 8 3 5 9 11 10 10 10 9 8 8 10 10
6 5 5 4 5 5 6 6 6 6 6 5 5 4 3 6 3 4 4 1 8 3 1 7 4 4 8 0 5 7 1 1 9 4 4 5 3 6 7 6 10 9 6 6 4 4 3 0 11 9 4 2 4 4 3 4 5 4 2 1 2 0 2 7 1 1 2 1 2 2 2 10 12 15 6 4 1 4 10 12 11 10 10 10 9 9 10 11
6 6 5 5 6 6 6 6 6 5 5 5 4 5 6 3 3 4 8 5 7 7 1 7 9 8 11 4 1 2 5 4 5 4 2 5 4 5 0 2 1 6 7 4 2 2 6 12 14 1 2 3 10 7 5 4 3 4 1 1 1 1 5 5 1 2 3 1 1 2 6 7 11 7 1 1 5 4 7 11 11 11 11 11 10 9 10 10
6 6 6 6 6 5 5 5 5 5 5 6 7 6 4 2 1 4 7 8 7 4 8 1 1 1 6 3 1 3 3 2 5 3 6 4 4 0 2 4 5 6 3 4 10 7 9 11 3 3 7 7 1 3 1 5 2 1 3 1 2 0 1 1 5 2 4 1 3 0 3 12 13 11 7 5 3 2 8 13 13 10 10 11 9 9 10 10
6 6 6 7 6 5 5 4 4 5 4 1 3 8 12 12 11 10 11 7 3 7 4 4 2 4 5 5 2 2 0 5 6 5 3 1 5 7 8 5 2 4 7 3 7 9 5 4 4 3 3 6 6 4 2 1 3 2 0 1 1 1 3 5 2 1 1 1 5 1 7 18 20 17 15 12 4 8 12 12 12 11 10 10 10 10 12 10
7 6 6 6 6 5 4 4 3 3 3 0 1 4 3 4 4 9 9 7 4 4 4 8 6 4 3 2 5 5 2 4 2 4 5 5 3 3 4 3 5 3 1 5 3 6 6 5 5 7 3 6 4 4 3 1 3 1 4 1 1 1 2 2 4 3 2 3 5 8 10 13 15 15 16 10 3 6 12 9 9 11 10 10 10 11 10 12
7 7 6 6 5 4 4 3 4 3 1 3 3 2 5 6 8 5 9 10 6 2 4 3 2 2 2 4 3 5 2 3 3 6 2 1 2 4 7 4 4 9 6 2 6 3 1 8 6 1 2 4 4 2 0 1 4 5 4 2 1 1 7 4 3 1 1 1 10 11 10 13 18 17 16 16 2 7 10 12 11 10 10 9 9 11 12 12
7 7 7 6 5 4 4 4 4 3 7 2 1 3 0 6 5 3 2 1 2 1 5 3 4 5 2 1 2 4 0 2 3 6 5 1 1 1 4 4 5 8 5 1 0 3 4 9 4 3 5 4 1 3 4 5 4 1 4 1 3 3 5 2 1 1 2 2 4 1 6 14 17 17 17 11 4 14 13 10 11 12 9 9 10 11 12 13
6 7 7 6 5 4 4 3 3 5 5 2 3 1 1 2 0 2 6 5 4 5 7 2 2 3 2 3 1 2 3 4 10 12 4 4 4 3 4 8 5 5 4 3 3 8 9 3 3 2 2 5 5 4 2 1 3 4 1 1 1 3 6 8 1 2 1 1 9 2 7 14 18 16 15 11 11 9 6 7 7 5 9 8 8 10 11 9
7 6 6 5 5 4 4 2 4 3 2 0 1 2 1 1 0 1 4 7 4 2 4 2 4 4 3 2 0 3 5 5 2 7 8 5 3 5 1 5 7 3 4 5 5 3 5 2 2 2 4 5 3 3 3 4 4 3 1 1 3 2 2 4 1 3 0 1 5 5 10 15 17 12 15 13 7 7 6 8 11 8 11 12 11 8 8 10
7 6 4 4 3 3 2 0 3 4 4 4 6 2 2 1 2 2 2 2 4 1 1 0 2 1 3 3 3 5 3 1 2 10 7 4 3 1 4 3 5 4 3 5 7 8 4 1 1 5 0 1 3 1 1 1 2 1 1 1 1 1 3 4 4 5 3 1 1 6 8 9 7 8 5 1 2 5 6 5 8 10 12 11 8 9 10 13
5 4 4 2 1 1 1 2 5 0 2 3 1 1 2 2 2 1 2 1 4 2 2 1 3 1 1 0 4 1 0 1 1 2 3 3 1 2 1 1 2 1 2 1 5 8 1 0 4 2 3 3 3 3 0 3 1 2 7 6 3 3 4 6 5 6 7 2 0 4 6 4 4 7 9 9 7 8 4 4 9 9 6 7 9 12 10 10
3 2 3 2 1 2 4 3 1 2 2 2 2 2 1 2 1 0 7 4 2 3 3 3 1 1 2 2 5 0 0 2 1 2 1 0 3 1 1 2 1 2 2 2 1 1 2 0 2 3 4 4 4 1 1 3 2 1 1 5 3 2 2 1 4 1 2 1 0 1 0 10 4 7 8 5 8 12 9 5 11 10 10 6 9 9 9 9
3 0 1 2 5 8 4 3 1 3 3 1 2 2 0 1 0 1 0 4 4 1 1 2 1 1 2 1 1 0 1 1 3 2 3 3 1 1 1 3 1 3 2 2 2 0 2 0 3 2 1 2 1 0 2 7 4 2 0 5 3 2 1 2 1 2 3 2 3 2 2 3 11 11 3 5 7 9 9 11 10 9 8 9 8 9 10 10
3 3 4 7 8 5 1 5 4 1 1 0 0 2 1 2 1 2 4 3 1 1 1 3 0 2 4 3 6 4 1 4 1 1 1 3 1 2 4 1 1 2 1 2 0 1 4 1 1 2 3 1 2 2 2 4 1 2 1 3 2 3 4 3 1 1 0 2 7 3 1 0 5 10 3 2 5 8 10 11 10 9 8 8 9 9 10 11
4 4 7 9 11 9 6 4 4 2 1 1 1 1 2 3 4 4 3 3 1 2 2 1 1 1 9 2 5 2 1 5 1 3 5 1 5 1 2 0 3 3 1 1 1 1 2 0 2 4 2 2 3 0 5 7 1 1 4 5 5 5 5 2 1 1 2 1 7 1 1 1 9 7 7 3 1 6 9 10 10 9 8 8 8 10 10 9
5 4 4 5 7 2 3 3 5 0 1 1 2 2 2 2 3 1 1 2 0 0 1 2 3 6 3 1 2 8 7 4 1 6 4 2 7 8 3 2 2 2 0 2 1 3 1 3 3 2 2 1 2 1 2 1 0 3 2 1 2 4 2 2 5 2 2 1 5 3 3 1 6 7 7 3 4 6 5 5 7 8 8 10 10 11 10 8
10 8 4 3 2 2 2 3 0 1 1 1 1 3 2 7 3 3 2 1 1 2 1 4 2 6 6 5 3 5 2 3 8 5 3 7 7 6 3 1 3 2 2 5 1 3 0 1 0 1 2 2 2 1 2 1 1 2 1 1 1 1 4 1 2 3 1 5 3 3 2 1 2 9 8 8 6 4 4 6 9 12 11 10 7 7 8 8
13 15 13 10 1 2 1 4 2 2 2 1 2 4 4 4 5 3 2 5 0 3 3 3 1 1 3 1 5 6 4 5 3 6 5 3 3 7 8 3 4 2 1 3 2 4 0 1 1 2 2 3 1 1 1 1 1 1 1 4 6 5 7 2 4 3 3 3 1 0 1 3 11 14 12 12 12 11 7 9 11 9 11 10 9 10 7 7
11 14 17 9 2 5 3 1 1 2 2 1 4 4 1 3 1 2 1 4 1 1 1 2 2 3 2 1 4 3 2 3 3 3 2 0 3 2 0 1 0 1 2 2 3 7 2 2 2 2 2 0 2 0 3 1 1 3 1 2 3 3 3 2 6 2 5 5 3 1 1 4 6 9 11 15 17 11 6 7 10 10 11 11 10 9 10 10
9 7 13 3 8 4 2 2 2 1 1 2 2 2 5 3 0 1 0 1 1 2 2 1 3 0 4 3 2 3 1 1 2 3 2 1 5 2 2 1 0 3 1 1 2 0 3 4 1 0 1 1 0 0 1 1 0 0 1 1 2 5 0 4 2 3 6 7 4 3 1 8 3 4 1 9 10 8 7 7 7 8 10 10 10 11 13 12
10 11 9 1 4 4 3 1 2 1 1 4 10 5 2 0 1 1 0 1 1 1 0 1 1 1 2 2 3 1 1 1 1 1 6 3 1 0 1 3 3 2 1 1 1 1 1 6 4 2 3 1 2 0 1 3 3 1 2 2 4 2 5 3 4 2 4 6 8 2 6 3 5 7 15 3 6 6 4 5 4 9 6 6 8 10 10 9
3 2 3 4 3 4 2 1 1 1 2 7 8 7 3 2 1 2 0 0 1 0 2 1 4 3 1 1 1 2 3 0 3 2 1 2 2 1 1 2 1 0 0 1 2 0 3 2 1 6 2 3 1 1 1 1 1 2 2 1 1 1 5 3 2 1 1 3 9 2 9 6 8 8 6 8 6 3 4 4 5 7 8 5 8 9 10 9
2 3 8 3 3 4 1 1 0 2 7 6 6 2 2 1 0 1 1 1 1 0 0 1 3 2 2 2 2 4 1 2 1 2 1 1 0 3 0 1 3 0 1 2 2 3 1 9 3 2 1 0 1 1 1 2 2 4 1 3 2 2 2 3 2 3 4 2 8 1 5 8 8 9 4 9 3 4 6 7 7 9 5 6 8 8 9 10
2 2 3 4 4 3 1 1 1 8 8 9 5 4 0 1 0 0 0 1 1 0 1 2 0 4 2 0 2 2 4 1 4 2 1 0 0 2 1 1 0 1 0 1 1 2 2 6 3 0 0 3 2 0 3 1 0 2 1 1 0 1 0 3 3 3 3 5 7 6 2 7 6 10 5 6 4 9 9 7 7 8 8 8 8 10 10 9
2 3 3 5 4 3 1 1 7 6 5 11 0 3 1 0 0 0 1 1 0 0 1 0 1 0 2 1 2 0 2 2 2 1 1 0 1 2 0 3 0 1 1 2 1 0 1 1 7 1 2 2 2 1 4 1 3 2 1 1 1 2 2 1 2 2 5 6 4 10 7 12 7 8 6 8 7 8 10 7 7 8 8 9 9 10 10 10
1 2 2 1 6 4 2 3 7 10 9 6 2 1 1 0 0 1 0 0 1 1 0 0 0 0 0 2 1 2 1 0 0 1 1 1 0 1 0 2 1 0 2 0 0 0 1 1 3 2 3 2 2 3 5 7 3 1 2 2 2 1 2 2 1 3 3 3 2 1 9 10 9 8 5 9 8 10 8 10 8 7 8 10 9 10 11 11
1 4 1 2 6 2 4 13 14 8 8 0 2 3 1 0 0 1 2 0 0 0 0 1 2 1 1 1 1 0 1 1 1 1 0 2 2 3 2 1 3 0 0 1 0 1 1 0 5 6 8 2 7 1 1 2 2 4 7 6 7 4 1 1 8 3 1 2 4 4 12 12 13 8 8 8 10 7 8 6 9 9 10 12 12 11 10 11
2 3 4 6 5 1 4 10 5 0 6 5 2 0 1 1 1 2 1 0 1 0 1 3 0 1 1 1 0 0 0 2 0 0 1 1 1 0 1 4 4 3 1 1 0 1 0 1 1 8 7 8 2 0 0 1 2 1 2 2 3 2 5 3 2 4 1 2 4 2 1 18 4 4 5 7 6 5 5 3 8 10 11 12 13 11 11 10
6 3 1 5 4 3 9 8 1 6 5 0 1 1 1 1 2 1 1 2 1 1 1 3 0 2 1 0 0 1 1 1 2 1 0 1 2 2 4 5 6 5 0 2 2 1 2 0 4 8 7 4 1 0 2 1 1 0 1 2 1 3 4 5 4 5 4 1 1 2 2 14 12 1 4 3 5 5 6 5 9 12 11 12 13 11 11 12
2 3 3 1 3 3 10 4 4 3 1 0 2 1 2 1 1 2 1 1 1 2 1 1 1 2 0 0 0 1 0 2 1 2 2 0 2 3 3 4 4 1 1 0 2 2 1 3 3 7 8 4 2 2 2 1 2 1 2 2 1 2 4 1 4 0 1 8 10 9 11 11 10 2 2 3 5 10 10 7 5 10 13 13 14 12 11 12
4 0 2 7 11 9 7 4 8 5 1 1 1 5 4 1 1 1 1 0 0 1 1 1 1 1 0 0 1 1 1 3 2 0 1 2 3 1 1 2 2 2 1 2 3 1 1 3 1 3 5 10 14 14 13 8 1 3 0 1 3 8 8 1 5 1 3 4 7 4 8 15 19 17 20 19 9 10 13 9 7 7 10 13 14 14 13 12
4 3 7 7 9 8 7 2 6 8 5 1 4 1 1 1 0 2 3 1 1 1 0 3 0 1 1 1 1 1 0 0 1 3 3 1 2 1 2 0 2 2 1 4 2 1 1 0 2 6 5 8 10 8 3 2 3 5 6 2 8 2 2 2 4 4 10 4 5 14 12 16 21 26 23 20 16 18 18 18 16 14 12 11 11 11 11 12
2 6 2 4 6 9 4 4 4 2 2 3 3 0 4 0 2 1 4 0 0 1 0 0 1 0 1 2 1 1 1 1 1 0 5 5 2 2 1 1 1 0 3 1 2 2 2 1 5 6 8 12 8 8 12 3 8 13 10 14 6 7 9 8 9 12 5 4 12 12 7 7 17 19 18 19 19 19 18 17 17 16 16 16 16 14 13 13
5 1 2 2 4 2 6 6 7 5 3 3 1 1 1 2 3 1 1 1 0 0 0 1 3 2 1 0 0 0 1 3 0 2 2 1 3 3 1 2 1 3 2 0 0 1 2 2 6 4 10 7 12 14 14 6 8 11 13 15 14 6 7 14 15 15 5 7 14 18 5 5 17 18 20 19 18 16 16 18 15 13 14 16 16 15 15 15
6 2 1 2 2 0 1 1 2 3 8 4 2 1 2 2 4 0 0 2 1 2 1 1 3 2 1 0 0 1 0 5 4 2 1 3 3 3 3 0 0 2 1 0 1 1 2 5 4 4 7 10 12 15 8 7 4 5 11 16 10 7 15 15 17 9 10 15 18 16 17 18 19 20 22 22 19 15 14 12 12 11 14 15 15 15 14 15
1 2 1 6 6 4 1 1 1 3 8 3 3 2 1 1 1 3 1 1 1 1 0 1 3 2 0 1 1 0 2 1 2 3 3 2 6 1 2 3 0 1 1 0 1 1 2 6 3 1 3 12 6 3 1 3 2 8 19 13 5 9 7 10 8 8 5 13 19 18 16 18 20 18 16 16 13 9 9 11 13 12 11 14 14 16 16 14
1 0 5 8 6 3 1 2 2 4 4 7 6 1 1 1 1 0 1 0 0 1 0 2 1 1 1 0 1 3 4 4 3 9 5 2 4 1 0 2 2 0 1 1 0 1 1 5 3 3 5 11 3 3 8 8 8 10 16 19 8 3 4 4 6 8 6 12 3 2 6 10 14 11 6 10 11 11 11 10 12 13 17 19 16 15 15 15
2 0 2 6 6 2 3 1 1 4 6 1 1 1 1 1 1 0 0 1 1 0 0 1 1 0 1 2 3 2 2 3 5 3 0 3 0 2 2 2 1 1 1 1 1 0 0 1 3 3 4 8 4 7 14 13 8 6 3 4 2 5 6 4 5 5 11 3 2 5 9 9 9 7 13 17 18 20 20 13 10 15 21 21 16 13 14 14
Wind_Direction
293 294 296 296 299 301 304 307 307 308 305 302 302 304 303 308 315 317 317 323 317 313 326 318 309 281 282 286 293 337 56 77 43 37 47 181 313 311 315 314 307 310 89 81 41 76 8 17 9 338 40 51 318 50 291 57 44 51 56 117 70 181 156 193 174 183 230 138 194 177 193 129 186 204 238 97 31 18 282 293 294 297 245 199 210 228 253 288
286 287 288 291 294 297 301 301 300 298 300 298 300 300 307 308 309 312 313 319 314 306 316 316 284 263 278 290 317 10 80 62 44 37 61 342 339 347 339 338 359 346 139 41 99 108 86 8 37 44 46 50 323 33 24 6 54 71 117 71 141 190 215 150 194 182 133 180 165 176 150 173 212 151 258 160 267 352 284 287 338 302 289 213 98 329 158 150
282 282 285 288 292 294 292 294 294 293 294 295 298 302 304 302 302 308 316 319 310 312 311 300 255 236 274 290 259 65 40 2 35 9 318 355 348 346 343 347 34 33 56 153 158 127 137 172 223 80 17 92 8 347 32 345 58 345 110 83 12 201 273 199 166 176 233 147 152 155 214 172 250 140 327 206 225 2 232 228 271 260 254 265 246 272 169 129
287 287 287 288 288 289 289 288 289 289 289 294 296 296 294 295 299 306 315 308 302 305 297 320 17 22 355 107 93 87 76 58 46 304 301 344 346 339 346 4 9 46 70 54 125 95 95 81 61 75 69 62 317 21 42 334 68 317 66 133 151 179 117 274 185 221 196 159 142 141 115 248 250 212 125 183 142 258 254 230 200 207 233 246 230 238 204 176
292 291 290 288 288 288 286 285 286 287 288 287 290 288 288 295 304 307 312 301 297 302 344 352 352 53 83 95 112 82 82 56 298 286 302 344 340 339 349 40 41 61 95 145 81 55 68 65 75 45 67 42 9 14 35 330 84 78 83 240 128 169 73 218 205 185 117 117 113 119 140 213 80 33 142 151 195 227 211 234 215 226 212 208 214 214 172 194
296 292 292 291 287 284 285 285 285 285 287 289 294 297 303 305 309 310 304 302 298 321 339 323 342 43 93 118 72 64 90 89 298 313 340 337 332 339 17 60 70 76 77 45 81 26 57 5 59 28 28 58 347 76 308 336 336 92 348 22 314 231 124 286 154 191 138 128 138 147 210 89 168 254 211 182 218 237 221 199 199 216 223 212 147 155 200 203
294 289 288 286 287 285 286 288 287 290 296 299 299 299 298 303 308 307 305 299 298 300 305 329 338 29 75 41 41 75 83 183 330 291 344 329 334 344 44 33 44 43 60 63 26 65 64 82 71 77 90 85 36 79 356 1 25 92 124 16 21 84 101 291 127 110 80 135 172 189 39 178 140 249 96 223 238 242 248 223 220 212 266 186 196 206 211 205
290 287 286 287 288 288 288 289 293 295 293 292 293 298 304 312 307 292 282 270 274 288 340 14 163 120 104 51 42 46 49 332 317 329 329 335 346 332 299 30 60 65 59 58 131 103 102 62 114 168 51 105 232 99 308 58 29 66 80 243 301 44 355 33 94 73 98 94 192 113 164 233 180 205 14 252 243 246 247 237 241 253 249 225 224 227 218 219
290 289 290 290 291 290 289 291 291 285 288 294 300 302 301 300 296 288 301 352 353 354 355 17 81 119 122 89 104 64 1 308 299 317 342 346 335 356 58 24 14 87 123 49 25 149 95 255 109 177 184 111 320 81 348 92 12 60 122 86 55 63 19 3 70 51 63 115 79 103 268 276 255 250 260 251 255 234 245 253 235 225 233 223 221 222 209 208
300 298 296 294 293 291 288 285 284 292 300 303 299 292 292 308 313 334 359 5 352 355 355 4 135 128 61 78 59 65 291 301 324 341 333 342 344 44 38 40 42 90 61 347 36 41 112 195 138 119 117 82 83 32 280 55 149 127 89 94 86 341 76 357 122 10 330 102 161 192 278 274 321 74 282 264 252 276 219 238 235 209 230 230 224 225 217 206
318 313 310 301 291 287 287 288 302 305 306 298 294 293 299 317 330 359 10 360 355 339 353 30 101 90 58 63 83 91 288 28 344 334 348 294 47 38 11 344 339 85 100 56 52 34 109 122 130 138 36 152 109 18 67 138 135 79 149 80 30 4 77 35 64 12 328 228 149 150 260 255 287 99 240 259 104 143 205 237 240 227 235 237 232 227 218 217
344 333 313 305 305 303 307 311 310 295 295 296 297 309 321 331 347 358 356 332 343 4 360 1 59 102 89 67 66 80 291 226 329 319 342 26 58 39 34 33 52 47 101 98 50 8 93 134 83 67 159 158 77 130 67 144 64 203 71 71 329 7 80 339 135 273 48 287 186 166 288 276 178 222 238 244 239 139 203 242 247 244 242 242 245 243 227 218
346 333 319 324 324 321 315 307 300 292 300 313 319 325 337 338 338 347 354 14 25 60 28 10 63 74 57 66 313 242 306 262 312 6 13 27 93 65 63 52 58 54 86 102 75 320 123 144 104 79 45 84 137 40 156 83 337 45 37 106 22 3 347 277 316 343 104 254 83 306 327 271 239 230 251 216 119 93 254 255 246 244 245 246 242 243 243 231
340 338 342 341 325 308 300 305 315 332 328 324 332 336 342 335 348 355 354 70 66 77 74 83 89 62 85 96 252 242 253 224 360 27 357 312 63 29 50 41 51 59 52 86 99 80 73 75 88 113 103 93 123 308 63 348 17 95 283 58 83 16 269 290 184 277 153 196 350 119 248 291 275 268 257 273 234 219 250 251 248 246 247 246 243 242 240 238
343 337 343 325 311 321 330 333 338 336 331 332 343 4 27 28 12 2 14 89 358 7 51 45 35 87 52 52 272 301 347 46 34 338 326 15 35 59 30 27 45 43 56 75 104 47 55 216 68 45 58 313 63 60 28 35 9 31 58 287 328 92 274 292 319 229 186 345 348 97 299 244 275 280 289 303 142 184 240 252 251 249 247 245 246 244 245 241
337 330 323 333 343 331 332 334 331 327 341 358 29 51 57 55 45 40 53 60 5 21 121 51 5 88 103 60 128 28 41 40 345 309 304 48 37 107 211 65 25 32 42 28 50 78 37 66 64 137 116 19 54 82 57 39 342 357 83 226 278 42 269 340 50 309 343 87 348 164 249 321 292 269 342 96 133 166 239 265 260 256 254 252 246 243 247 257
332 329 334 339 330 331 324 322 325 337 3 47 72 76 74 181 301 66 65 43 10 349 57 105 108 101 74 249 282 36 300 289 281 357 343 36 43 86 69 21 21 348 356 31 32 49 3 59 274 46 35 90 147 91 60 19 337 336 16 123 209 175 351 284 316 46 356 173 255 216 223 245 251 271 261 240 172 252 258 263 265 256 254 250 250 249 248 244
328 337 342 328 328 324 316 313 331 0 8 29 90 106 85 62 69 44 357 13 352 78 91 98 112 43 40 13 48 316 31 296 359 308 297 335 65 36 61 43 324 49 40 11 1 43 337 58 15 140 22 17 30 41 100 218 187 238 19 2 320 299 203 249 327 294 74 25 222 289 247 265 268 274 278 269 224 233 253 257 265 266 257 253 246 248 246 246
335 341 336 326 319 322 326 323 353 18 34 100 26 302 34 24 25 66 39 340 35 354 25 329 25 90 153 302 294 294 285 234 288 25 332 6 340 94 59 88 58 49 3 61 326 52 345 65 39 39 13 347 5 86 136 192 144 165 170 178 176 315 266 201 235 281 157 243 248 224 237 264 275 281 283 285 171 222 256 267 270 266 262 258 249 249 248 242
338 333 329 328 321 325 328 351 13 23 315 42 1 18 19 25 8 355 353 27 67 105 155 181 64 123 20 7 347 280 244 53 98 342 342 305 2 354 39 57 22 62 64 55 311 40 113 79 71 120 242 237 266 197 143 150 126 103 87 105 191 224 284 282 265 258 171 281 239 232 246 264 275 273 277 282 309 267 265 267 263 262 259 255 251 245 248 247
342 332 325 324 330 332 349 22 46 70 97 107 75 61 260 153 82 49 281 65 195 236 83 65 79 97 113 249 311 6 52 330 107 9 9 213 68 72 332 21 11 57 7 252 136 309 66 67 350 247 232 236 272 153 115 72 38 110 110 69 300 189 265 232 145 334 277 165 295 37 275 268 260 272 272 278 299 272 259 256 261 258 252 254 250 254 247 250
335 327 321 323 329 344 354 44 75 72 87 89 67 100 118 198 150 173 121 62 7 21 40 37 11 53 310 186 311 136 86 49 16 355 333 40 329 93 326 79 57 91 323 347 14 22 42 58 261 270 127 104 68 103 72 124 108 37 196 185 315 280 250 283 269 335 293 116 265 15 327 286 283 274 277 262 249 246 228 212 235 239 269 256 248 250 262 267
331 321 320 317 319 338 11 67 67 92 64 56 64 83 113 191 347 250 97 122 76 336 50 6 30 24 12 306 22 97 58 42 342 350 343 11 9 55 110 57 47 34 16 15 131 86 50 285 249 131 147 91 65 66 96 76 75 108 57 25 271 259 32 311 290 1 1 174 291 336 318 288 282 279 260 267 226 255 258 249 257 239 250 255 248 241 252 262
330 318 313 318 312 335 350 197 51 52 25 123 102 145 149 109 124 119 62 92 126 324 27 207 118 125 41 30 326 59 86 309 72 332 352 56 68 218 71 108 79 41 19 30 94 114 166 174 122 108 179 160 120 14 89 57 284 313 168 155 258 293 256 189 263 315 265 266 141 315 286 286 284 323 329 343 312 299 278 295 266 250 238 254 285 277 237 247
321 314 312 300 349 205 219 90 42 356 178 48 46 246 188 155 144 127 93 15 20 26 185 45 112 30 271 11 7 127 308 85 99 235 292 51 349 26 65 188 94 48 168 61 73 71 335 239 141 82 58 58 81 42 42 135 259 319 229 190 215 189 246 280 327 2 4 328 47 46 338 299 301 285 250 278 340 315 295 331 284 273 244 232 251 253 259 242
313 320 288 292 195 157 200 63 269 157 87 121 204 143 105 167 141 92 92 72 60 278 9 360 170 13 172 331 8 149 60 42 258 261 83 116 168 126 121 22 50 166 181 177 151 152 160 23 176 205 131 72 63 103 231 149 189 96 261 183 206 176 189 285 312 62 342 262 219 19 60 277 311 284 275 317 321 293 297 266 269 280 280 247 242 252 257 254
335 8 83 177 149 138 93 212 146 124 92 245 101 67 338 120 245 77 20 358 41 292 38 251 78 290 106 298 332 31 66 257 326 6 29 347 36 323 87 307 32 42 116 173 38 268 108 52 68 57 80 65 68 330 205 135 102 269 156 133 101 129 186 227 135 150 230 291 296 65 129 219 306 291 256 307 308 292 302 290 280 271 264 262 253 250 253 257
15 68 92 124 140 150 193 127 130 151 187 190 62 87 171 142 85 33 77 63 329 359 18 316 340 337 71 317 40 96 157 289 48 254 93 299 131 349 86 162 137 201 182 75 167 272 140 238 165 63 69 91 219 211 162 151 208 241 203 152 179 184 200 132 132 176 219 22 292 333 354 317 253 262 297 358 317 300 288 276 274 271 268 263 267 261 255 252
33 70 90 109 102 93 83 115 120 134 195 42 74 83 99 83 92 112 133 107 257 74 199 98 274 37 339 334 29 3 329 11 95 312 321 288 55 187 60 211 125 94 13 116 185 242 301 151 221 140 124 226 236 278 158 149 347 292 116 69 74 71 71 118 120 139 327 32 283 272 6 216 276 272 322 341 215 270 259 262 263 257 266 278 278 274 263 264
31 62 89 127 103 78 18 47 47 173 97 100 110 129 68 57 33 30 0 39 33 302 35 279 53 294 19 43 335 2 38 340 92 303 24 87 320 33 60 131 114 89 122 359 97 191 298 294 186 104 197 204 140 356 155 217 141 122 90 85 7 34 44 36 70 85 52 317 256 248 304 132 305 269 231 185 219 199 234 293 278 278 278 270 259 258 268 269
56 51 62 79 97 178 92 28 274 115 142 135 172 62 74 38 109 96 91 229 47 300 16 34 333 15 27 46 353 345 53 342 345 22 345 10 354 33 14 101 32 51 34 0 237 333 1 354 230 271 51 77 102 76 64 114 93 106 174 180 78 315 3 60 341 42 95 276 255 266 270 12 211 293 273 239 279 247 205 255 276 285 284 278 273 268 262 267
66 61 54 64 129 359 103 194 149 148 104 135 76 61 68 262 6 76 158 325 154 303 68 303 32 62 20 333 74 340 350 337 10 33 40 19 33 30 351 90 356 52 342 356 293 343 256 169 257 350 302 117 132 125 313 13 11 118 109 19 45 290 19 329 18 324 202 206 194 179 8 345 226 234 265 285 271 270 225 227 250 262 276 277 273 275 283 279
77 86 69 49 44 56 31 311 10 144 97 60 72 55 52 91 65 281 300 321 327 4 297 148 276 12 288 38 2 339 267 47 331 77 160 348 98 37 310 104 215 186 321 284 293 9 287 292 5 315 15 149 146 273 313 12 290 44 83 120 63 15 28 272 274 224 296 291 258 266 269 244 270 285 244 244 261 257 261 230 239 248 256 268 277 294 297 293
55 68 72 25 76 88 134 83 64 20 51 44 71 34 41 52 286 148 58 276 305 356 20 1 338 283 40 89 302 358 26 238 34 327 49 320 54 29 328 316 73 6 77 47 59 300 21 342 271 86 176 71 129 142 186 208 140 189 159 131 179 142 112 301 237 285 271 249 284 285 57 236 33 251 238 220 251 278 260 255 255 260 260 270 283 282 280 277
89 71 103 67 59 51 52 70 72 81 79 64 53 84 112 231 215 174 348 296 299 309 138 245 26 53 347 28 320 291 165 314 54 9 15 52 354 132 302 308 331 121 188 91 275 64 231 231 250 251 256 322 139 218 120 98 68 208 180 96 74 239 130 207 211 182 301 337 329 216 206 203 209 280 291 322 300 294 303 286 299 279 267 274 285 276 270 270
39 354 64 38 38 344 29 30 154 82 85 62 75 44 85 188 76 166 126 132 310 325 289 17 63 60 303 320 315 83 289 148 306 70 337 65 191 137 198 208 199 175 112 101 210 297 22 296 326 312 43 86 158 253 297 82 317 250 102 222 208 127 100 81 44 85 77 56 256 177 311 278 292 301 299 337 358 317 340 326 334 309 309 310 282 278 275 272
40 336 44 338 24 349 339 40 109 81 62 85 91 86 193 288 214 181 338 191 271 177 50 116 311 82 333 306 271 331 287 40 259 66 304 156 327 202 261 268 163 144 199 135 314 190 158 267 290 87 238 1 239 166 346 3 140 72 342 234 123 142 121 130 258 336 60 125 272 64 245 306 30 298 327 343 7 303 329 311 306 299 302 304 286 282 278 278
76 73 133 55 318 318 297 253 70 51 76 78 69 138 323 68 15 179 219 346 330 5 87 79 278 75 260 118 327 313 311 52 316 45 254 349 279 150 119 171 29 127 314 293 121 294 101 325 302 272 250 270 20 1 339 332 154 202 191 202 71 287 307 330 90 335 338 299 289 298 270 250 188 259 327 300 321 298 297 298 315 303 306 295 293 291 286 283
64 90 29 336 340 346 290 76 67 62 65 62 42 89 291 157 223 179 213 210 210 207 78 261 134 285 135 161 258 309 333 40 333 81 56 256 23 173 115 164 314 161 318 141 50 295 21 235 296 291 135 332 325 86 267 272 3 51 30 27 20 113 189 124 200 183 121 273 36 291 7 289 191 223 201 258 277 287 289 301 275 264 271 283 286 290 290 291
45 46 0 318 337 6 316 73 60 49 61 98 185 118 224 93 239 300 33 29 356 45 232 128 274 99 273 228 112 313 336 86 56 290 72 284 268 32 320 10 149 308 122 260 85 215 259 115 255 283 290 333 303 195 218 152 141 0 40 332 358 15 218 107 346 149 207 198 194 253 323 284 258 201 180 257 271 276 269 277 279 275 282 283 276 279 288 286
355 97 278 338 332 308 22 47 45 37 86 241 88 136 18 31 112 347 336 12 234 328 184 169 152 35 235 28 350 22 314 24 339 286 189 310 162 322 25 91 351 107 39 37 137 318 63 132 221 313 348 272 241 312 227 162 152 166 160 203 175 118 184 319 274 39 64 112 232 137 266 279 290 117 211 232 257 253 268 251 275 283 288 291 292 286 277 283
82 46 319 343 329 50 70 52 23 38 92 68 53 6 85 52 75 336 341 309 97 102 12 105 62 119 96 102 188 288 35 311 266 24 258 164 231 165 0 22 3 338 348 271 252 273 125 172 66 286 224 247 274 120 75 89 131 144 154 267 136 133 105 104 265 275 23 250 102 151 83 275 233 187 180 233 241 248 265 261 280 291 291 292 289 282 281 266
44 119 233 338 329 56 64 67 337 44 56 226 222 25 350 31 110 242 56 340 1 128 12 51 31 23 10 352 314 70 206 290 163 284 228 286 276 8 359 358 351 321 92 347 357 335 65 41 349 268 285 309 352 9 100 105 132 58 19 104 119 213 184 183 185 178 156 115 188 356 233 262 287 168 224 253 253 267 272 239 278 291 294 294 294 299 302 304
117 90 1 328 58 98 75 90 73 25 30 327 75 81 353 132 79 7 30 340 82 353 77 358 336 87 79 66 96 39 276 350 252 34 340 53 300 57 17 42 9 82 39 190 126 295 33 289 112 311 334 328 347 351 3 340 72 140 229 267 170 82 74 145 109 160 288 214 179 140 246 274 275 110 244 248 327 307 295 280 223 275 296 299 303 307 306 301
112 301 40 315 7 55 96 174 130 131 91 117 81 27 351 21 122 180 177 144 138 162 111 14 192 250 71 136 115 152 3 110 284 6 139 221 243 122 50 107 271 141 87 247 206 281 142 231 78 326 325 326 323 332 326 328 249 265 240 263 240 173 142 139 254 147 195 275 149 194 248 255 281 298 297 298 307 298 293 280 263 234 258 285 300 303 304 302
27 103 318 351 13 44 73 66 104 130 121 144 41 296 118 38 5 276 160 131 193 179 22 179 227 139 106 67 24 33 228 304 159 274 24 281 286 288 190 23 61 140 23 208 334 292 150 338 176 170 186 239 236 248 234 57 329 298 262 203 240 175 202 105 99 106 226 214 190 242 236 281 294 292 296 303 315 308 310 315 317 318 309 297 289 291 293 295
129 72 14 341 338 50 64 27 30 49 115 155 99 240 359 268 255 345 190 20 241 166 88 67 235 64 325 50 322 305 221 288 44 130 236 214 255 257 119 33 150 57 308 325 220 89 67 322 244 212 232 237 255 274 269 290 271 276 277 271 221 179 176 173 172 228 131 70 278 257 241 246 266 279 289 298 302 306 307 311 315 319 318 311 302 301 299 301
73 240 106 203 111 329 18 8 34 47 16 61 115 47 334 355 17 38 334 55 105 331 76 341 40 24 205 178 133 320 318 312 21 254 349 228 341 328 29 13 19 325 325 311 310 141 146 195 271 120 259 236 250 254 268 279 233 248 259 258 262 186 168 196 226 227 125 208 246 271 270 248 278 283 287 289 288 290 298 302 305 304 298 297 300 305 308 308
108 138 144 332 87 245 131 245 67 90 65 70 127 73 16 67 44 256 161 323 39 353 51 30 340 339 293 293 76 290 343 11 321 298 180 321 254 328 333 16 104 343 351 24 355 182 94 245 243 190 277 271 254 257 264 241 275 280 255 256 253 192 215 212 240 235 197 237 252 269 283 284 279 279 281 284 289 296 297 299 298 298 289 290 296 298 301 303
112 118 77 13 84 109 347 28 86 54 58 348 84 339 118 330 3 341 29 85 14 329 336 73 297 313 278 169 184 356 253 194 255 294 265 105 314 141 247 220 122 333 34 184 38 289 131 278 90 237 340 293 278 298 325 222 233 284 284 279 241 234 241 233 249 265 231 276 265 273 286 282 277 270 274 280 292 294 296 292 289 282 284 293 298 299 300 300
141 119 150 113 51 333 22 20 46 74 61 350 66 297 79 294 290 179 266 30 98 315 56 315 277 306 92 92 115 256 261 233 216 223 226 180 258 225 93 313 106 356 2 4 37 327 50 272 48 54 5 298 354 2 311 288 261 251 279 294 282 173 239 218 205 215 173 232 275 331 275 265 269 286 295 295 295 297 291 290 303 311 308 304 302 300 298 295
75 7 74 107 87 316 51 327 13 68 33 265 96 319 92 330 243 47 8 109 42 338 205 271 224 154 326 14 313 239 265 203 235 259 238 238 185 258 191 233 133 159 225 160 300 238 110 78 6 13 349 267 269 342 314 316 324 342 311 250 181 206 215 252 246 200 217 166 231 244 245 249 280 319 324 312 315 313 314 317 322 311 304 302 302 295 290 288